Regional Weather Roundup
Issued by NWS Goodland, KS

Home | Current Version | Previous Version | Text Only | Print | Product List | Glossary On
Versions: 1 2 3 4 5 6 7 8 9 10 11 12 13 14 15 16 17 18 19 20 21 22 23 24 25 26 27 28 29 30 31 32 33 34 35 36 37 38 39 40 41 42 43 44 45 46 47 48 49 50
000
ASUS43 KGLD 301108
RWRGLD

GOODLAND FORECAST AREA HOURLY WEATHER ROUNDUP
NATIONAL WEATHER SERVICE GOODLAND KS
500 AM MDT WED JUL 30 2014

...OFFICIAL OBSERVATIONS...

CITY           SKY/WX    TMP DP  RH WIND       PRES   REMARKS
GOODLAND KS    LGT RAIN  61  59  93 NE15G23   30.18R
HILL CITY KS   CLOUDY    67  56  67 E15G21    30.14R
IMPERIAL NEB   CLOUDY    63  60  90 E5        30.20S
MCCOOK NEB     CLOUDY    63  62  97 CALM      30.16F
AKRON CO       CLOUDY    60  58  92 E10       30.24R
BURLINGTON CO  CLOUDY    60  58  92 NE13      30.19R
LIMON CO       CLOUDY    58  56  93 NE10      30.25R
$$

...UNOFFICIAL OBSERVATIONS...

CITY           SKY/WX    TMP DP  RH WIND       PRES   REMARKS
GOVE KS          N/A     63  32  31 MISG        N/A
LENORA KS        N/A     63  32  31 MISG        N/A
OBERLIN KS     CLOUDY    64  61  88 E9        30.16R
ST FRANCIS KS  CLOUDY    61  57  88 NE12      30.18R
TRIBUNE KS     CLOUDY    63 N/A N/A N10       30.13
WAKEENEY KS      N/A     66  53  62 MISG        N/A
TRENTON NEB      N/A     62  32  32 CALM        N/A
KIT CARSON CO    N/A     61  58  91 N12         N/A
WRAY CO          N/A    N/A N/A N/A E14       30.20S
YUMA CO          N/A     61  61 100 E12         N/A
$$



USA.gov is the U.S. government's official web portal to all federal, state and local government web resources and services.